FW1140 Weather Reports


time (UTC)temp
F
wind
direction
speed
knots
gust
knots
rain 1hr
in
rain 24hr
in
rain mn
in
humidity
%
barometer
mb
20260905164535 76 88 3.5 8.7 0.00 0.00 0.00 77 1010.9
20260905163035 75 80 3.5 7.8 0.00 0.00 0.00 78 1010.7
20260905161532 74 117 3.5 9.6 0.00 0.00 0.00 79 1010.9
20260905160040 73 85 3.5 7.8 0.00 0.00 0.00 82 1011.1
20260905154555 71 77 3.5 7.0 0.00 0.00 0.00 86 1011.0
20260905153001 72 85 3.5 7.0 0.00 0.00 0.00 86 1010.9
20260905151520 69 123 2.6 7.0 0.00 0.00 0.00 91 1010.9
20260905150029 68 68 2.6 7.0 0.00 0.00 0.00 93 1011.0
20260905144551 68 73 3.5 6.1 0.00 0.00 0.00 94 1010.7
20260905143026 67 79 2.6 5.2 0.00 0.00 0.00 95 1010.6
20260905141508 67 96 2.6 6.1 0.00 0.00 0.00 94 1010.2
20260905140022 67 56 2.6 6.1 0.00 0.00 0.00 95 1010.5
20260905134503 67 59 1.7 3.5 0.00 0.00 0.00 95 1010.5
20260905133106 67 117 1.7 5.2 0.00 0.00 0.00 95 1010.7
20260905131551 67 75 0.9 3.5 0.00 0.00 0.00 95 1010.6
20260905130026 67 144 1.7 4.3 0.00 0.00 0.00 95 1010.9
20260905124536 67 162 0.9 4.3 0.00 0.00 0.00 95 1010.8
20260905123020 66 110 1.7 7.0 0.00 0.00 0.00 95 1010.0
20260905121540 66 51 2.6 7.0 0.00 0.00 0.00 94 1010.4
20260905120031 66 101 2.6 7.0 0.00 0.00 0.00 94 1010.1
20260905114622 67 99 2.6 6.1 0.00 0.00 0.00 94 1010.0
20260905113048 67 136 0.9 4.3 0.00 0.00 0.00 94 1010.3
20260905111504 67 94 1.7 3.5 0.00 0.00 0.00 94 1010.7
20260905110016 67 107 1.7 3.5 0.00 0.00 0.00 94 1010.6
20260905104529 66 217 0.0 1.7 0.00 0.00 0.00 94 1010.7
20260905103030 66 62 0.9 2.6 0.00 0.00 0.00 94 1010.4
20260905101510 0 0.0 0.0 0.00 0.00 0.00 1010.2
20260905100024 0 0.0 0.0 0.00 0.00 0.00 1010.1
20260905094538 0 0.0 0.0 0.00 0.00 0.00 1009.9
20260905093056 0 0.0 0.0 0.00 0.00 0.00 1009.8
20260905091504 0 0.0 0.0 0.00 0.00 0.00 1009.7
20260905090027 0 0.0 0.0 0.00 0.00 0.00 1009.9
20260905084540 0 0.0 0.0 0.00 0.00 0.00 1009.3
20260905083011 67 132 5.2 9.6 0.00 0.00 0.00 94 1009.3
20260905081521 67 149 2.6 6.1 0.00 0.00 0.00 94 1009.7
20260905080038 67 113 0.9 3.5 0.00 0.00 0.00 94 1009.9
20260905074600 67 70 0.9 4.3 0.00 0.00 0.00 94 1010.2
20260905073114 67 56 0.9 2.6 0.00 0.00 0.00 94 1010.3
20260905071524 68 137 0.9 2.6 0.00 0.00 0.00 94 1010.4
20260905070020 68 103 1.7 4.3 0.00 0.00 0.00 94 1010.6
20260905064507 67 133 0.9 3.5 0.00 0.00 0.00 94 1010.6
20260905063028 65 157 0.0 0.9 0.00 0.00 0.00 93 1010.6
20260905061622 65 157 0.0 0.9 0.00 0.00 0.00 93 1010.8
20260905060052 65 157 0.9 1.7 0.00 0.00 0.00 93 1010.8
20260905054530 66 157 0.0 0.0 0.00 0.00 0.00 93 1010.7
20260905053034 65 157 0.0 0.0 0.00 0.00 0.00 93 1010.5
20260905051529 65 157 0.0 0.0 0.00 0.00 0.00 92 1010.4
20260905050043 65 157 0.0 0.0 0.00 0.00 0.00 92 1010.3
20260905044603 66 157 0.0 0.9 0.00 0.00 0.00 92 1010.2
20260905043020 67 157 0.0 1.7 0.00 0.00 0.00 91 1010.0
20260905041527 67 157 0.0 0.9 0.00 0.00 0.00 92 1009.9
20260905040027 68 157 0.0 0.9 0.00 0.00 0.00 92 1010.1
20260905034522 68 157 0.0 0.0 0.00 0.00 0.00 91 1009.9
20260905033053 68 157 0.9 1.7 0.00 0.00 0.00 91 1010.0
20260905031616 69 157 0.0 2.6 0.00 0.00 0.00 91 1009.8
20260905030044 67 1 0.0 0.9 0.00 0.00 0.00 90 1009.6
20260905024552 68 1 0.9 1.7 0.00 0.00 0.00 90 1009.9
20260905023037 70 1 0.0 2.6 0.00 0.00 0.00 88 1009.4
20260905021540 71 137 2.6 5.2 0.00 0.00 0.00 89 1008.8
20260905020048 69 146 1.7 3.5 0.00 0.00 0.00 90 1008.8
20260905014555 67 93 0.0 0.9 0.00 0.00 0.00 89 1009.0
20260905013014 68 93 0.0 0.0 0.00 0.00 0.00 87 1008.6
20260905011528 70 93 0.0 0.0 0.00 0.00 0.00 87 1008.6
20260905010050 71 93 0.0 0.0 0.00 0.00 0.00 84 1008.4
20260905004612 74 93 0.0 0.0 0.00 0.00 0.00 83 1008.5
20260905003024 75 93 0.0 0.0 0.00 0.00 0.00 81 1008.4
20260905001542 76 93 0.0 1.7 0.00 0.00 0.00 78 1008.5
20260905000048 78 78 1.7 4.3 0.00 0.00 0.00 75 1008.4
20260904234557 78 60 1.7 6.1 0.00 0.00 0.00 73 1008.4
20260904233023 80 81 1.7 6.1 0.00 0.00 0.00 72 1008.4
20260904231508 81 105 1.7 7.8 0.00 0.00 0.00 68 1008.4
20260904230017 81 65 1.7 4.3 0.00 0.00 0.00 67 1008.5
20260904224516 83 54 2.6 7.0 0.00 0.00 0.00 66 1008.4
20260904223017 84 68 2.6 7.0 0.00 0.00 0.00 63 1008.2
20260904221529 83 123 2.6 6.1 0.00 0.00 0.00 64 1008.2
20260904220037 84 69 0.9 7.0 0.00 0.00 0.00 61 1008.2
20260904214523 85 61 4.3 7.8 0.00 0.00 0.00 61 1008.2
20260904213042 85 86 2.6 5.2 0.00 0.00 0.00 63 1008.3
20260904211558 85 68 2.6 6.1 0.00 0.00 0.00 62 1008.3
20260904210059 85 44 4.3 7.8 0.00 0.00 0.00 60 1008.5
20260904204610 85 26 3.5 7.8 0.00 0.00 0.00 61 1008.5
20260904203006 84 103 3.5 8.7 0.00 0.00 0.00 63 1008.4
20260904201507 84 85 2.6 6.1 0.00 0.00 0.00 62 1008.5
20260904200017 83 8 3.5 7.0 0.00 0.00 0.00 65 1008.5
20260904194603 85 53 1.7 6.1 0.00 0.00 0.00 65 1008.6
20260904193104 82 26 2.6 7.0 0.00 0.00 0.00 69 1008.7
20260904191548 82 34 0.9 5.2 0.00 0.00 0.00 67 1008.8
20260904190026 83 95 1.7 6.1 0.00 0.00 0.00 67 1008.8
20260904184521 80 30 2.6 6.1 0.00 0.00 0.00 72 1008.9
20260904183050 80 356 2.6 7.0 0.00 0.00 0.00 72 1008.9
20260904181526 81 4 1.7 5.2 0.00 0.00 0.00 70 1009.0
20260904180021 77 49 1.7 6.1 0.00 0.00 0.00 75 1008.9
20260904174556 77 46 2.6 7.0 0.00 0.00 0.00 75 1009.0
20260904173001 77 352 1.7 7.8 0.00 0.00 0.00 77 1008.9
20260904171517 75 52 2.6 6.1 0.00 0.00 0.00 81 1008.9
20260904170042 73 319 2.6 6.1 0.00 0.00 0.00 83 1008.8